Language: 


Des rapports , des résumés tant et plus, au choix de chacun....


Données Historiques de Météogheer
Journalier Rapport pour Février 15, 2018 Unitée:  Métrique    Impériale   Les deux
Suivant Jour »
Journalier Hebdomadaire Mensuel Annuel Sur mesure
  Max: Min: Moyenne:
Température: 13.1 °C 2.7 °C 6.8 °C
Point de rosée: 12.0 °C 2.0 °C 5.3 °C
Humidité: 98% 63% 89%
Vent: 25.3km/h 0.0km/h 9.1km/h
Rafales: 33.1km/h - -
Vent- - SW
Pression: 1018.8 hPa 1003.9 hPa -
Pluie: 1.3 mm    
Historical Graphs
 
 
Données tabulaires pour Février 15, 2018
Heure Température Point de rosée Pression Vent Vent Rafales Humidité Pluie Taux (Horaire) Conditions
00:01 3.9 °C 3.0 °C 1006.0 hPa SSW 20.1 km/h 23.8 km/h 95% 1.3 mm
00:06 3.8 °C 3.0 °C 1006.0 hPa South 13.7 km/h 20.1 km/h 95% 0.8 mm
00:11 3.8 °C 3.0 °C 1006.0 hPa SSE 13.0 km/h 31.4 km/h 96% 0.8 mm
00:16 3.8 °C 3.0 °C 1006.0 hPa SSW 15.4 km/h 31.4 km/h 96% 0.8 mm
00:21 3.8 °C 3.0 °C 1006.0 hPa SSE 17.7 km/h 23.3 km/h 96% 0.8 mm
00:26 3.8 °C 3.0 °C 1006.0 hPa SSE 16.9 km/h 23.3 km/h 96% 0.5 mm
00:31 3.8 °C 3.0 °C 1006.0 hPa SSE 9.3 km/h 22.4 km/h 96% 0.5 mm
00:36 3.8 °C 3.0 °C 1006.0 hPa South 9.0 km/h 22.4 km/h 96% 0.5 mm
00:41 3.8 °C 3.0 °C 1006.0 hPa South 9.0 km/h 23.0 km/h 96% 0.3 mm
00:46 3.7 °C 3.0 °C 1005.0 hPa SSE 17.7 km/h 23.0 km/h 96% 0.3 mm
00:51 3.7 °C 3.0 °C 1005.0 hPa South 11.1 km/h 24.5 km/h 97% 0.3 mm
00:56 3.7 °C 3.0 °C 1005.0 hPa SSE 17.2 km/h 27.4 km/h 97% 0.0 mm
01:01 3.7 °C 3.0 °C 1006.0 hPa SSE 11.9 km/h 27.4 km/h 97% 0.0 mm
01:06 3.7 °C 3.0 °C 1006.0 hPa South 11.6 km/h 17.2 km/h 97% 0.0 mm
01:11 3.7 °C 4.0 °C 1006.0 hPa South 23.3 km/h 23.3 km/h 98% 0.0 mm
01:16 3.8 °C 4.0 °C 1006.0 hPa South 15.8 km/h 23.3 km/h 98% 0.0 mm
01:21 3.8 °C 4.0 °C 1006.0 hPa South 19.5 km/h 23.3 km/h 98% 0.0 mm
01:26 3.8 °C 4.0 °C 1006.0 hPa South 19.5 km/h 20.1 km/h 98% 0.0 mm
01:31 3.8 °C 4.0 °C 1005.0 hPa SSW 23.3 km/h 23.3 km/h 98% 0.3 mm
01:36 3.8 °C 4.0 °C 1005.0 hPa SSW 23.3 km/h 23.3 km/h 98% 0.3 mm
01:41 3.8 °C 4.0 °C 1005.0 hPa South 16.9 km/h 23.3 km/h 98% 0.3 mm
01:46 3.8 °C 4.0 °C 1003.9 hPa South 16.9 km/h 23.3 km/h 98% 0.3 mm
01:51 3.8 °C 4.0 °C 1003.9 hPa South 16.9 km/h 16.9 km/h 98% 0.3 mm
01:56 3.8 °C 4.0 °C 1003.9 hPa SSW 11.6 km/h 16.9 km/h 98% 0.3 mm
02:01 3.8 °C 4.0 °C 1005.0 hPa SSW 11.6 km/h 16.9 km/h 98% 0.3 mm
02:06 3.8 °C 4.0 °C 1005.0 hPa South 16.3 km/h 16.3 km/h 98% 0.3 mm
02:11 3.8 °C 4.0 °C 1005.0 hPa SSE 12.6 km/h 27.4 km/h 98% 0.3 mm
02:16 3.8 °C 4.0 °C 1005.0 hPa SSW 15.4 km/h 27.4 km/h 98% 0.3 mm
02:21 3.8 °C 4.0 °C 1005.0 hPa SSE 12.2 km/h 18.0 km/h 98% 0.3 mm
02:26 3.8 °C 4.0 °C 1005.0 hPa South 20.9 km/h 20.9 km/h 98% 0.3 mm
02:32 3.8 °C 4.0 °C 1005.0 hPa South 10.5 km/h 20.9 km/h 98% 0.3 mm
02:37 3.9 °C 4.0 °C 1005.0 hPa SSE 14.8 km/h 20.9 km/h 98% 0.3 mm
02:42 3.9 °C 4.0 °C 1005.0 hPa South 17.7 km/h 17.7 km/h 98% 0.3 mm
02:47 3.9 °C 4.0 °C 1005.0 hPa SSW 14.0 km/h 17.7 km/h 98% 0.3 mm
02:52 4.0 °C 4.0 °C 1005.0 hPa South 9.7 km/h 17.7 km/h 98% 0.3 mm
02:57 4.0 °C 4.0 °C 1005.0 hPa South 20.1 km/h 20.1 km/h 98% 0.3 mm
03:02 4.0 °C 4.0 °C 1005.0 hPa South 13.7 km/h 20.1 km/h 98% 0.3 mm
03:07 4.0 °C 4.0 °C 1005.0 hPa SSW 12.2 km/h 23.8 km/h 98% 0.3 mm
03:12 4.1 °C 4.0 °C 1005.0 hPa SSW 8.7 km/h 23.8 km/h 98% 0.3 mm
03:17 4.1 °C 4.0 °C 1003.9 hPa SSW 12.6 km/h 13.0 km/h 98% 0.3 mm
03:22 4.1 °C 4.0 °C 1003.9 hPa SSW 21.9 km/h 21.9 km/h 98% 0.3 mm
03:27 4.1 °C 4.0 °C 1003.9 hPa SSW 9.7 km/h 21.9 km/h 98% 0.0 mm
03:32 4.1 °C 4.0 °C 1005.0 hPa South 22.7 km/h 24.8 km/h 98% 0.0 mm
03:37 4.2 °C 4.0 °C 1005.0 hPa SSW 20.9 km/h 24.8 km/h 98% 0.0 mm
03:42 4.2 °C 4.0 °C 1005.0 hPa South 14.0 km/h 23.3 km/h 98% 0.0 mm
03:47 4.2 °C 4.0 °C 1005.0 hPa SSW 12.6 km/h 23.0 km/h 98% 0.0 mm
03:52 4.2 °C 4.0 °C 1005.0 hPa South 14.0 km/h 23.0 km/h 98% 0.0 mm
03:57 4.2 °C 4.0 °C 1005.0 hPa South 19.8 km/h 19.8 km/h 98% 0.0 mm
04:02 4.3 °C 4.0 °C 1005.0 hPa South 10.8 km/h 19.8 km/h 98% 0.0 mm
04:07 4.3 °C 4.0 °C 1005.0 hPa SSW 11.9 km/h 19.8 km/h 98% 0.0 mm
04:12 4.3 °C 4.0 °C 1005.0 hPa South 10.1 km/h 12.6 km/h 98% 0.0 mm
04:17 4.3 °C 4.0 °C 1005.0 hPa SSW 5.8 km/h 14.0 km/h 98% 0.0 mm
04:22 4.4 °C 4.0 °C 1005.0 hPa SSW 5.8 km/h 14.0 km/h 98% 0.0 mm
04:27 4.4 °C 4.0 °C 1005.0 hPa South 6.9 km/h 16.6 km/h 98% 0.0 mm
04:32 4.4 °C 4.0 °C 1005.0 hPa SSW 15.4 km/h 19.8 km/h 98% 0.0 mm
04:37 4.4 °C 4.0 °C 1005.0 hPa South 10.1 km/h 19.8 km/h 98% 0.0 mm
04:43 4.4 °C 4.0 °C 1005.0 hPa SSW 8.7 km/h 15.4 km/h 98% 0.0 mm
04:48 4.4 °C 4.0 °C 1005.0 hPa SSE 10.5 km/h 14.0 km/h 98% 0.3 mm
04:53 4.4 °C 4.0 °C 1005.0 hPa South 12.6 km/h 14.0 km/h 98% 0.3 mm
04:58 4.4 °C 4.0 °C 1005.0 hPa South 13.0 km/h 13.0 km/h 98% 0.3 mm
05:03 4.4 °C 4.0 °C 1005.0 hPa SE 10.1 km/h 13.0 km/h 98% 0.3 mm
05:08 4.5 °C 5.0 °C 1005.0 hPa SSE 7.9 km/h 17.7 km/h 98% 0.3 mm
05:13 4.5 °C 5.0 °C 1005.0 hPa South 14.3 km/h 17.7 km/h 98% 0.3 mm
05:18 4.6 °C 5.0 °C 1005.0 hPa SSW 9.0 km/h 14.3 km/h 98% 0.3 mm
05:23 4.6 °C 5.0 °C 1005.0 hPa South 12.2 km/h 15.8 km/h 98% 0.3 mm
05:28 4.6 °C 5.0 °C 1005.0 hPa SSW 10.8 km/h 15.8 km/h 98% 0.3 mm
05:33 4.6 °C 5.0 °C 1005.0 hPa SSW 6.1 km/h 13.7 km/h 98% 0.3 mm
05:38 4.7 °C 5.0 °C 1005.0 hPa SSW 9.3 km/h 10.5 km/h 98% 0.3 mm
05:43 4.7 °C 5.0 °C 1005.0 hPa SSW 7.9 km/h 10.5 km/h 98% 0.3 mm
05:48 4.7 °C 5.0 °C 1005.0 hPa SSW 9.3 km/h 13.0 km/h 98% 0.0 mm
05:53 4.8 °C 5.0 °C 1005.0 hPa South 11.1 km/h 14.0 km/h 98% 0.0 mm
05:58 4.7 °C 5.0 °C 1005.0 hPa South 11.9 km/h 14.0 km/h 98% 0.0 mm
06:03 4.8 °C 5.0 °C 1005.0 hPa South 6.4 km/h 13.7 km/h 98% 0.0 mm
06:08 4.8 °C 5.0 °C 1005.0 hPa South 12.2 km/h 13.7 km/h 98% 0.0 mm
06:13 4.8 °C 5.0 °C 1005.0 hPa South 9.0 km/h 12.2 km/h 98% 0.0 mm
06:18 4.8 °C 5.0 °C 1005.0 hPa SSW 1.8 km/h 12.2 km/h 98% 0.0 mm
06:23 4.8 °C 5.0 °C 1005.0 hPa Calm   9.7 km/h 98% 0.0 mm
06:28 4.9 °C 5.0 °C 1005.0 hPa SSW 8.7 km/h 10.5 km/h 98% 0.0 mm
06:33 4.9 °C 5.0 °C 1005.0 hPa South 4.3 km/h 11.6 km/h 98% 0.0 mm
06:38 5.0 °C 5.0 °C 1005.0 hPa SSW 5.0 km/h 12.2 km/h 98% 0.0 mm
06:43 5.0 °C 5.0 °C 1005.0 hPa South 9.7 km/h 12.2 km/h 98% 0.0 mm
06:48 5.0 °C 5.0 °C 1003.9 hPa SSW 7.9 km/h 13.0 km/h 98% 0.0 mm
06:53 5.0 °C 5.0 °C 1003.9 hPa South 9.7 km/h 13.0 km/h 98% 0.0 mm
06:58 5.1 °C 5.0 °C 1003.9 hPa SSW 7.9 km/h 14.8 km/h 98% 0.0 mm
07:03 5.1 °C 5.0 °C 1005.0 hPa SSW 6.1 km/h 14.8 km/h 98% 0.0 mm
07:09 5.1 °C 5.0 °C 1005.0 hPa South 7.9 km/h 11.6 km/h 98% 0.0 mm
07:14 5.1 °C 5.0 °C 1005.0 hPa South 7.6 km/h 11.6 km/h 98% 0.0 mm
07:19 5.2 °C 5.0 °C 1005.0 hPa South 6.4 km/h 9.7 km/h 98% 0.0 mm
07:24 5.2 °C 5.0 °C 1005.0 hPa Calm   9.7 km/h 98% 0.0 mm
07:29 5.3 °C 6.0 °C 1005.0 hPa Calm   9.3 km/h 98% 0.0 mm
07:34 5.3 °C 6.0 °C 1005.0 hPa South 6.9 km/h 8.7 km/h 98% 0.0 mm
07:39 5.3 °C 6.0 °C 1005.0 hPa Calm   8.7 km/h 98% 0.0 mm
07:44 5.4 °C 6.0 °C 1006.0 hPa SW 6.9 km/h 8.7 km/h 98% 0.0 mm
07:49 5.5 °C 6.0 °C 1006.0 hPa Calm   9.0 km/h 98% 0.0 mm
07:54 5.6 °C 6.0 °C 1006.0 hPa Calm   9.0 km/h 98% 0.0 mm
07:59 5.6 °C 6.0 °C 1006.0 hPa SW 7.6 km/h 9.0 km/h 98% 0.0 mm
08:04 5.7 °C 6.0 °C 1006.0 hPa SSW 12.2 km/h 12.2 km/h 98% 0.0 mm
08:09 5.7 °C 6.0 °C 1006.0 hPa SSW 12.2 km/h 12.2 km/h 98% 0.0 mm
08:14 5.8 °C 6.0 °C 1006.0 hPa SW 13.0 km/h 13.0 km/h 98% 0.0 mm
08:19 5.8 °C 6.0 °C 1006.0 hPa SSW 4.7 km/h 13.0 km/h 98% 0.0 mm
08:24 5.8 °C 6.0 °C 1006.0 hPa SSW 10.1 km/h 13.0 km/h 98% 0.3 mm
08:29 5.9 °C 6.0 °C 1008.0 hPa SW 5.5 km/h 10.1 km/h 98% 0.3 mm
08:34 5.9 °C 6.0 °C 1008.0 hPa Calm   10.1 km/h 98% 0.3 mm
08:39 6.0 °C 6.0 °C 1008.0 hPa SSW 5.5 km/h 8.7 km/h 98% 0.3 mm
08:44 6.1 °C 6.0 °C 1007.0 hPa South 5.5 km/h 7.9 km/h 98% 0.3 mm
08:49 6.1 °C 6.0 °C 1007.0 hPa Calm   9.3 km/h 98% 0.3 mm
08:54 6.2 °C 6.0 °C 1007.0 hPa SSW 9.7 km/h 9.7 km/h 98% 0.3 mm
08:59 6.3 °C 6.0 °C 1007.0 hPa SSW 6.4 km/h 10.5 km/h 98% 0.3 mm
09:04 6.3 °C 6.0 °C 1007.0 hPa SSW 4.0 km/h 10.5 km/h 98% 0.3 mm
09:09 6.4 °C 6.0 °C 1007.0 hPa SW 5.8 km/h 9.0 km/h 98% 0.3 mm
09:14 6.4 °C 6.0 °C 1006.0 hPa SSW 9.0 km/h 9.0 km/h 98% 0.3 mm
09:19 6.5 °C 7.0 °C 1006.0 hPa SSW 6.9 km/h 10.1 km/h 98% 0.0 mm
09:24 6.6 °C 7.0 °C 1006.0 hPa SSW 6.9 km/h 10.1 km/h 98% 0.0 mm
09:29 6.7 °C 7.0 °C 1007.0 hPa SW 5.5 km/h 10.1 km/h 98% 0.0 mm
09:34 6.8 °C 7.0 °C 1007.0 hPa Calm   10.1 km/h 98% 0.0 mm
09:40 6.9 °C 7.0 °C 1007.0 hPa Calm   11.1 km/h 98% 0.0 mm
09:45 7.0 °C 7.0 °C 1008.0 hPa Calm   11.1 km/h 98% 0.0 mm
09:50 7.1 °C 7.0 °C 1008.0 hPa SSW 5.5 km/h 8.7 km/h 98% 0.0 mm
09:55 7.3 °C 7.0 °C 1008.0 hPa South 3.5 km/h 10.1 km/h 98% 0.0 mm
10:00 7.3 °C 7.0 °C 1008.0 hPa SW 2.1 km/h 10.1 km/h 98% 0.0 mm
10:05 7.3 °C 7.0 °C 1008.0 hPa SSW 9.0 km/h 9.7 km/h 98% 0.0 mm
10:10 7.5 °C 8.0 °C 1008.0 hPa WSW 9.0 km/h 9.0 km/h 98% 0.0 mm
10:15 7.6 °C 8.0 °C 1008.0 hPa SSW 9.3 km/h 14.0 km/h 98% 0.0 mm
10:20 7.8 °C 8.0 °C 1008.0 hPa Calm   14.0 km/h 98% 0.0 mm
10:25 7.9 °C 8.0 °C 1008.0 hPa SW 8.7 km/h 13.0 km/h 98% 0.0 mm
10:30 8.0 °C 8.0 °C 1009.0 hPa SW 10.1 km/h 12.2 km/h 98% 0.0 mm
10:35 8.2 °C 8.0 °C 1009.0 hPa WSW 9.7 km/h 13.0 km/h 98% 0.0 mm
10:40 8.4 °C 9.0 °C 1009.0 hPa WSW 8.7 km/h 13.0 km/h 98% 0.0 mm
10:45 8.4 °C 9.0 °C 1009.0 hPa WSW 8.7 km/h 13.0 km/h 98% 0.0 mm
10:47 8.4 °C 9.0 °C 1009.0 hPa SW 2.6 km/h 13.0 km/h 98% 0.0 mm
10:52 8.5 °C 9.0 °C 1009.0 hPa SSW 9.3 km/h 13.0 km/h 98% 0.0 mm
10:57 8.7 °C 9.0 °C 1009.0 hPa WSW 8.7 km/h 13.7 km/h 98% 0.0 mm
11:02 8.9 °C 9.0 °C 1008.0 hPa WSW 9.0 km/h 16.9 km/h 98% 0.0 mm
11:07 9.1 °C 9.0 °C 1008.0 hPa SW 12.6 km/h 16.9 km/h 98% 0.0 mm
11:12 9.3 °C 9.0 °C 1008.0 hPa SW 13.7 km/h 16.3 km/h 98% 0.0 mm
11:17 9.5 °C 10.0 °C 1009.0 hPa WSW 11.9 km/h 16.3 km/h 98% 0.0 mm
11:22 10.1 °C 10.0 °C 1009.0 hPa SW 9.7 km/h 16.3 km/h 98% 0.0 mm
11:27 10.5 °C 11.0 °C 1009.0 hPa SSW 9.3 km/h 14.0 km/h 98% 0.0 mm
11:32 10.6 °C 11.0 °C 1009.0 hPa WSW 13.7 km/h 17.7 km/h 98% 0.0 mm
11:37 10.7 °C 11.0 °C 1009.0 hPa WSW 16.3 km/h 17.7 km/h 98% 0.0 mm
11:42 10.9 °C 11.0 °C 1009.0 hPa WSW 12.2 km/h 21.2 km/h 98% 0.0 mm
11:47 11.0 °C 11.0 °C 1009.0 hPa WSW 10.1 km/h 21.2 km/h 98% 0.0 mm
11:52 11.1 °C 11.0 °C 1009.0 hPa WSW 11.9 km/h 20.9 km/h 98% 0.0 mm
11:57 11.2 °C 11.0 °C 1009.0 hPa WSW 15.4 km/h 17.7 km/h 98% 0.0 mm
12:02 11.3 °C 11.0 °C 1009.0 hPa WSW 16.9 km/h 21.2 km/h 98% 0.0 mm
12:07 11.4 °C 11.0 °C 1009.0 hPa SW 17.7 km/h 21.2 km/h 98% 0.0 mm
12:12 11.7 °C 12.0 °C 1009.0 hPa WSW 14.0 km/h 20.6 km/h 98% 0.0 mm
12:18 11.8 °C 11.0 °C 1009.0 hPa West 13.0 km/h 20.1 km/h 97% 0.0 mm
12:23 11.9 °C 11.0 °C 1009.0 hPa WSW 22.7 km/h 22.7 km/h 95% 0.0 mm
12:28 12.1 °C 11.0 °C 1009.0 hPa WSW 17.2 km/h 24.8 km/h 94% 0.0 mm
12:33 12.2 °C 11.0 °C 1009.0 hPa West 19.1 km/h 24.8 km/h 93% 0.0 mm
12:38 12.1 °C 11.0 °C 1009.0 hPa WSW 16.6 km/h 24.8 km/h 91% 0.0 mm
12:43 12.0 °C 11.0 °C 1009.0 hPa WSW 18.0 km/h 24.8 km/h 89% 0.0 mm
12:48 11.9 °C 10.0 °C 1010.0 hPa West 16.3 km/h 26.7 km/h 87% 0.0 mm
12:53 12.0 °C 10.0 °C 1010.0 hPa West 17.7 km/h 27.4 km/h 86% 0.0 mm
12:58 12.0 °C 10.0 °C 1010.0 hPa West 16.9 km/h 27.4 km/h 85% 0.0 mm
13:03 12.1 °C 10.0 °C 1010.0 hPa WSW 20.6 km/h 24.5 km/h 85% 0.0 mm
13:08 12.1 °C 9.0 °C 1010.0 hPa WSW 24.8 km/h 27.7 km/h 83% 0.0 mm
13:13 12.1 °C 9.0 °C 1010.0 hPa WSW 13.0 km/h 27.7 km/h 81% 0.0 mm
13:18 12.1 °C 9.0 °C 1010.0 hPa WSW 20.6 km/h 27.0 km/h 83% 0.0 mm
13:23 12.2 °C 9.0 °C 1010.0 hPa West 19.8 km/h 28.0 km/h 80% 0.0 mm
13:28 12.2 °C 9.0 °C 1010.0 hPa WSW 14.0 km/h 28.0 km/h 79% 0.0 mm
13:33 12.1 °C 9.0 °C 1010.0 hPa WSW 15.1 km/h 24.8 km/h 78% 0.0 mm
13:38 12.3 °C 9.0 °C 1010.0 hPa West 13.7 km/h 22.4 km/h 79% 0.0 mm
13:43 12.4 °C 9.0 °C 1010.0 hPa West 16.6 km/h 20.9 km/h 78% 0.0 mm
13:48 12.5 °C 9.0 °C 1011.1 hPa West 19.8 km/h 23.8 km/h 78% 0.0 mm
13:53 12.5 °C 9.0 °C 1011.1 hPa WSW 13.7 km/h 23.8 km/h 76% 0.0 mm
13:58 12.5 °C 9.0 °C 1011.1 hPa WSW 16.6 km/h 25.6 km/h 77% 0.0 mm
14:03 12.5 °C 9.0 °C 1011.1 hPa WSW 13.7 km/h 25.6 km/h 76% 0.0 mm
14:08 12.5 °C 9.0 °C 1011.1 hPa West 24.8 km/h 25.6 km/h 74% 0.0 mm
14:13 12.4 °C 9.0 °C 1011.1 hPa WSW 15.4 km/h 25.6 km/h 75% 0.0 mm
14:18 12.5 °C 9.0 °C 1011.1 hPa WSW 23.8 km/h 24.8 km/h 77% 0.0 mm
14:24 12.6 °C 9.0 °C 1011.1 hPa West 14.0 km/h 23.8 km/h 76% 0.0 mm
14:29 12.6 °C 9.0 °C 1011.1 hPa WSW 16.9 km/h 21.2 km/h 75% 0.0 mm
14:34 12.7 °C 9.0 °C 1011.1 hPa WSW 10.1 km/h 21.2 km/h 75% 0.0 mm
14:39 12.8 °C 9.0 °C 1011.1 hPa WSW 12.6 km/h 24.8 km/h 74% 0.0 mm
14:44 12.7 °C 8.0 °C 1011.1 hPa West 19.5 km/h 26.7 km/h 73% 0.0 mm
14:49 12.7 °C 8.0 °C 1011.1 hPa West 16.6 km/h 28.0 km/h 70% 0.0 mm
14:54 12.8 °C 8.0 °C 1011.1 hPa West 21.2 km/h 28.0 km/h 70% 0.0 mm
14:59 12.7 °C 7.0 °C 1011.1 hPa WSW 19.8 km/h 33.1 km/h 68% 0.0 mm
15:04 12.8 °C 8.0 °C 1011.1 hPa WNW 17.2 km/h 33.1 km/h 70% 0.0 mm
15:09 12.8 °C 8.0 °C 1011.1 hPa WSW 19.8 km/h 23.8 km/h 69% 0.0 mm
15:14 12.8 °C 7.0 °C 1011.1 hPa West 15.8 km/h 27.4 km/h 67% 0.0 mm
15:19 12.9 °C 7.0 °C 1011.1 hPa WSW 16.6 km/h 27.4 km/h 64% 0.0 mm
15:24 13.1 °C 7.0 °C 1011.1 hPa WSW 25.3 km/h 32.3 km/h 65% 0.0 mm
15:29 13.0 °C 6.0 °C 1011.1 hPa West 18.3 km/h 32.3 km/h 63% 0.0 mm
15:34 12.8 °C 7.0 °C 1011.1 hPa WSW 20.1 km/h 30.9 km/h 64% 0.0 mm
15:39 12.5 °C 6.0 °C 1011.1 hPa West 23.8 km/h 29.1 km/h 64% 0.0 mm
15:44 12.2 °C 6.0 °C 1012.1 hPa West 20.1 km/h 29.1 km/h 64% 0.0 mm
15:49 11.8 °C 6.0 °C 1012.1 hPa WSW 18.0 km/h 29.9 km/h 65% 0.0 mm
15:54 11.7 °C 6.0 °C 1012.1 hPa West 16.9 km/h 29.9 km/h 67% 0.0 mm
15:59 11.8 °C 6.0 °C 1013.1 hPa West 10.1 km/h 24.5 km/h 68% 0.0 mm
16:04 11.7 °C 6.0 °C 1013.1 hPa West 9.0 km/h 21.2 km/h 68% 0.0 mm
16:09 12.0 °C 7.0 °C 1013.1 hPa WSW 9.3 km/h 20.1 km/h 68% 0.0 mm
16:14 12.1 °C 6.0 °C 1013.1 hPa WNW 9.0 km/h 20.1 km/h 67% 0.0 mm
16:19 12.0 °C 6.0 °C 1013.1 hPa WNW 6.4 km/h 14.0 km/h 67% 0.0 mm
16:24 11.6 °C 6.0 °C 1013.1 hPa West 9.7 km/h 17.2 km/h 66% 0.0 mm
16:29 11.2 °C 6.0 °C 1013.1 hPa West 15.8 km/h 17.2 km/h 67% 0.0 mm
16:34 11.0 °C 6.0 °C 1013.1 hPa West 10.5 km/h 16.9 km/h 68% 0.0 mm
16:39 10.8 °C 5.0 °C 1013.1 hPa WNW 4.3 km/h 16.9 km/h 69% 0.0 mm
16:44 10.5 °C 6.0 °C 1013.1 hPa West 17.2 km/h 17.2 km/h 70% 0.0 mm
16:49 10.3 °C 6.0 °C 1013.1 hPa West 10.1 km/h 17.2 km/h 71% 0.0 mm
16:54 10.1 °C 5.0 °C 1013.1 hPa WSW 9.7 km/h 16.9 km/h 71% 0.0 mm
17:00 10.0 °C 6.0 °C 1013.1 hPa WSW 9.7 km/h 16.9 km/h 72% 0.0 mm
17:05 9.9 °C 6.0 °C 1013.1 hPa West 9.7 km/h 15.8 km/h 72% 0.0 mm
17:10 9.7 °C 5.0 °C 1013.1 hPa West 10.5 km/h 17.7 km/h 72% 0.0 mm
17:15 9.7 °C 5.0 °C 1013.1 hPa West 9.3 km/h 17.7 km/h 72% 0.0 mm
17:20 9.7 °C 5.0 °C 1013.1 hPa WSW 9.3 km/h 17.2 km/h 71% 0.0 mm
17:25 9.7 °C 5.0 °C 1013.1 hPa West 13.0 km/h 16.9 km/h 70% 0.0 mm
17:30 9.6 °C 4.0 °C 1014.1 hPa West 4.7 km/h 14.3 km/h 69% 0.0 mm
17:31 9.6 °C 4.0 °C 1014.1 hPa West 10.1 km/h 14.3 km/h 69% 0.0 mm
17:36 9.5 °C 4.0 °C 1014.1 hPa WSW 6.4 km/h 13.7 km/h 69% 0.0 mm
17:41 9.3 °C 4.0 °C 1014.1 hPa West 7.9 km/h 13.0 km/h 69% 0.0 mm
17:47 9.1 °C 4.0 °C 1014.1 hPa West 8.7 km/h 10.5 km/h 69% 0.0 mm
17:52 8.9 °C 4.0 °C 1014.1 hPa West 2.1 km/h 10.1 km/h 69% 0.0 mm
17:57 8.5 °C 4.0 °C 1014.1 hPa Calm   8.7 km/h 70% 0.0 mm
18:02 8.2 °C 3.0 °C 1014.1 hPa Calm   6.4 km/h 71% 0.0 mm
18:07 8.1 °C 4.0 °C 1014.1 hPa WSW 3.5 km/h 7.6 km/h 72% 0.0 mm
18:12 7.9 °C 3.0 °C 1014.1 hPa West 6.1 km/h 7.9 km/h 72% 0.0 mm
18:17 7.7 °C 3.0 °C 1015.1 hPa Calm   7.9 km/h 73% 0.0 mm
18:22 7.5 °C 3.0 °C 1015.1 hPa West 6.1 km/h 8.7 km/h 74% 0.0 mm
18:27 7.4 °C 3.0 °C 1015.1 hPa West 1.4 km/h 9.3 km/h 75% 0.0 mm
18:32 7.2 °C 3.0 °C 1015.1 hPa West 5.5 km/h 9.7 km/h 75% 0.0 mm
18:37 7.0 °C 3.0 °C 1015.1 hPa West 3.5 km/h 9.7 km/h 76% 0.0 mm
18:42 6.8 °C 3.0 °C 1015.1 hPa Calm   7.9 km/h 77% 0.0 mm
18:47 6.7 °C 3.0 °C 1016.1 hPa Calm   7.6 km/h 77% 0.0 mm
18:52 6.5 °C 3.0 °C 1016.1 hPa Calm   6.9 km/h 77% 0.0 mm
18:57 6.4 °C 3.0 °C 1016.1 hPa Calm   6.9 km/h 78% 0.0 mm
19:02 6.2 °C 3.0 °C 1014.1 hPa Calm   6.4 km/h 79% 0.0 mm
19:07 6.0 °C 3.0 °C 1014.1 hPa Calm   6.4 km/h 79% 0.0 mm
19:12 6.0 °C 3.0 °C 1014.1 hPa Calm   5.0 km/h 80% 0.0 mm
19:17 5.9 °C 3.0 °C 1015.1 hPa West 4.0 km/h 8.7 km/h 81% 0.0 mm
19:23 5.8 °C 3.0 °C 1015.1 hPa WSW 3.5 km/h 8.7 km/h 81% 0.0 mm
19:28 5.7 °C 3.0 °C 1015.1 hPa WSW 5.5 km/h 7.2 km/h 82% 0.0 mm
19:33 5.7 °C 3.0 °C 1015.1 hPa WSW 4.3 km/h 7.2 km/h 82% 0.0 mm
19:38 5.6 °C 3.0 °C 1015.1 hPa West 4.0 km/h 6.9 km/h 83% 0.0 mm
19:43 5.5 °C 3.0 °C 1015.1 hPa Calm   6.9 km/h 83% 0.0 mm
19:48 5.3 °C 3.0 °C 1016.1 hPa Calm   4.3 km/h 83% 0.0 mm
19:53 5.1 °C 3.0 °C 1016.1 hPa Calm   4.3 km/h 83% 0.0 mm
19:58 5.0 °C 3.0 °C 1016.1 hPa Calm   1.4 km/h 83% 0.0 mm
20:03 4.9 °C 3.0 °C 1016.1 hPa West 1.8 km/h 4.0 km/h 84% 0.0 mm
20:08 4.9 °C 3.0 °C 1016.1 hPa Calm   4.3 km/h 85% 0.0 mm
20:13 4.9 °C 3.0 °C 1016.1 hPa West 3.5 km/h 6.1 km/h 86% 0.0 mm
20:18 4.8 °C 3.0 °C 1016.1 hPa Calm   6.1 km/h 86% 0.0 mm
20:23 4.6 °C 3.0 °C 1016.1 hPa Calm   3.5 km/h 85% 0.0 mm
20:28 4.3 °C 2.0 °C 1016.1 hPa Calm     85% 0.0 mm
20:33 4.1 °C 2.0 °C 1016.8 hPa Calm     85% 0.0 mm
20:38 3.9 °C 2.0 °C 1016.8 hPa Calm     85% 0.0 mm
20:43 3.7 °C 2.0 °C 1016.8 hPa Calm     86% 0.0 mm
20:48 3.6 °C 2.0 °C 1016.8 hPa Calm     86% 0.0 mm
20:53 3.5 °C 2.0 °C 1016.8 hPa Calm     87% 0.0 mm
20:59 3.5 °C 2.0 °C 1016.8 hPa Calm     87% 0.0 mm
21:04 3.5 °C 2.0 °C 1016.8 hPa Calm     88% 0.0 mm
21:06 3.5 °C 2.0 °C 1016.8 hPa Calm     88% 0.0 mm
21:11 3.6 °C 2.0 °C 1016.8 hPa Calm     89% 0.0 mm
21:16 3.6 °C 2.0 °C 1016.8 hPa Calm     89% 0.0 mm
21:21 3.5 °C 2.0 °C 1016.8 hPa Calm     90% 0.0 mm
21:26 3.3 °C 2.0 °C 1016.8 hPa Calm     90% 0.0 mm
21:31 3.2 °C 2.0 °C 1016.8 hPa Calm     89% 0.0 mm
21:36 3.3 °C 2.0 °C 1016.8 hPa Calm   5.8 km/h 91% 0.0 mm
21:41 3.4 °C 2.0 °C 1016.8 hPa Calm   5.8 km/h 91% 0.0 mm
21:46 3.5 °C 3.0 °C 1016.8 hPa Calm   7.2 km/h 92% 0.0 mm
21:51 3.6 °C 3.0 °C 1016.8 hPa West 1.4 km/h 7.2 km/h 92% 0.0 mm
21:56 3.6 °C 3.0 °C 1016.8 hPa West 4.0 km/h 6.9 km/h 93% 0.0 mm
22:01 3.7 °C 3.0 °C 1016.8 hPa Calm   8.7 km/h 93% 0.0 mm
22:06 3.6 °C 3.0 °C 1016.8 hPa Calm   8.7 km/h 93% 0.0 mm
22:11 3.6 °C 3.0 °C 1016.8 hPa Calm   6.9 km/h 93% 0.0 mm
22:17 3.5 °C 3.0 °C 1016.8 hPa West 5.8 km/h 8.7 km/h 93% 0.0 mm
22:22 3.5 °C 3.0 °C 1016.8 hPa West 7.9 km/h 8.7 km/h 93% 0.0 mm
22:27 3.4 °C 3.0 °C 1016.8 hPa West 5.8 km/h 7.9 km/h 94% 0.0 mm
22:32 3.4 °C 3.0 °C 1018.2 hPa Calm   7.9 km/h 94% 0.0 mm
22:37 3.3 °C 3.0 °C 1018.2 hPa Calm   5.8 km/h 94% 0.0 mm
22:42 3.2 °C 3.0 °C 1018.2 hPa Calm     94% 0.0 mm
22:47 3.2 °C 3.0 °C 1018.2 hPa Calm   6.1 km/h 94% 0.0 mm
22:52 3.3 °C 3.0 °C 1018.2 hPa Calm   6.1 km/h 94% 0.0 mm
22:57 3.2 °C 3.0 °C 1018.2 hPa Calm     95% 0.0 mm
23:02 2.8 °C 2.0 °C 1018.2 hPa Calm     94% 0.0 mm
23:07 2.7 °C 2.0 °C 1018.2 hPa Calm   7.6 km/h 94% 0.0 mm
23:12 2.8 °C 3.0 °C 1018.2 hPa Calm   7.6 km/h 95% 0.0 mm
23:17 2.9 °C 3.0 °C 1018.8 hPa Calm   6.4 km/h 95% 0.0 mm
23:22 2.8 °C 3.0 °C 1018.8 hPa Calm     96% 0.0 mm
23:27 2.7 °C 2.0 °C 1018.8 hPa Calm     95% 0.0 mm
23:32 2.9 °C 3.0 °C 1018.8 hPa WSW 6.1 km/h 6.1 km/h 96% 0.0 mm
23:37 2.9 °C 3.0 °C 1018.8 hPa Calm   6.9 km/h 96% 0.0 mm
23:42 2.9 °C 3.0 °C 1018.8 hPa Calm   6.9 km/h 96% 0.0 mm
23:47 3.0 °C 3.0 °C 1018.8 hPa Calm     96% 0.0 mm
23:52 3.0 °C 3.0 °C 1018.8 hPa Calm     96% 0.0 mm
23:57 2.8 °C 3.0 °C 1018.8 hPa West 3.5 km/h 3.5 km/h 96% 0.0 mm
Données Historique de Météo Turbie

Mise a jour : 18/06/2018 00:21:13
Généré par Cumulus 1.9.4 (1099)